Terminal Aerodrome Forecast
Issued by NWS Green Bay, WI

Home | Current Version | Previous Version | Graphics & Text | Print | Product List | Glossary On
Versions: 1 2 3 4 5 6 7 8 9 10 11 12 13 14 15 16 17 18 19 20 21 22 23 24 25 26 27 28 29 30 31 32 33 34 35 36 37 38 39 40 41 42 43 44 45 46 47 48 49 50
790
FTUS43 KGRB 191726
TAFGRB
TAF
KGRB 191726Z 1918/2018 19006KT 1/4SM FG BKN002
     FM192100 19004KT 1/4SM FG BKN003
     FM192300 18002KT 1/2SM FG BKN003
     FM200300 VRB03KT 1/4SM -RAFZRA FZFG OVC003
     FM201000 06003KT 3/4SM -RA BR OVC003=

USA.gov is the U.S. government's official web portal to all federal, state and local government web resources and services.